South Haven, MI

5:12 PM EDT on June 24, 2017 (GMT -0400)
South Haven

Weather History for KLWA - February, 2013

Change the Weather History Date:

Wednesday, February 6, 2013

  Actual Average (KBEH) Record (KBEH)
Temperature  
Mean Temperature 22 °F -  
Max Temperature 34 °F 29 °F 53 °F (1964)
Min Temperature 12 °F 15 °F -6 °F (1979)
Degree Days  
Heating Degree Days 42    
Moisture  
Dew Point 19 °F    
Average Humidity 69    
Maximum Humidity 96    
Minimum Humidity 51    
Precipitation  
Precipitation 0.00 in - - ()
Sea Level Pressure  
Sea Level Pressure 30.17 in    
Wind  
Wind Speed 5 mph (South)    
Max Wind Speed 12 mph    
Max Gust Speed 16 mph    
Visibility 9 miles    
Events      
Averages and records for this station are not official NWS values.
T = Trace of Precipitation, MM = Missing Value Source: NWS Daily Summary

Daily Weather History Graph

Daily Weather History Graph

Search for Another Location

Airport or City:

Trip Planner

Search our weather history database for the weather conditions in past years. The results will help you decide how hot, cold, wet, or windy it might be!

Date:

Astronomy

Feb. 06, 2013 Rise Set
Actual Time 7:52 AM EST 6:06 PM EST
Civil Twilight 7:23 AM EST 6:35 PM EST
Nautical Twilight 6:50 AM EST 7:08 PM EST
Astronomical Twilight 6:17 AM EST 7:41 PM EST
Moon 4:38 AM EST (2/6) 2:21 PM EST (2/6)
Length of Visible Light 11h 12m
Length of Day
10h 13m
Waning Crescent, 17% of the Moon is Illuminated
Feb 6
Waning Crescent
Feb 10
New
Feb 17
First Quarter
Feb 25
Full
Mar 4
Last Quarter

Hourly Weather History & Observations

Time (EST) Temp. Windchill Dew Point Humidity Pressure Visibility Wind Dir Wind Speed Gust Speed Precip Events Conditions
12:14 AM 28.4 °F 19.1 °F 21.2 °F 74% 30.02 in 10.0 mi NW 10.4 mph 16.1 mph N/A   Overcast
12:35 AM 28.2 °F 21.0 °F 20.1 °F 72% 30.03 in 10.0 mi NNW 6.9 mph 10.4 mph N/A   Overcast
12:54 AM 28.2 °F 23.1 °F 19.2 °F 69% 30.04 in 10.0 mi NNW 4.6 mph - N/A   Overcast
1:15 AM 28.0 °F 22.8 °F 19.9 °F 72% 30.04 in 10.0 mi NNW 4.6 mph - N/A   Overcast
1:35 AM 28.2 °F 22.0 °F 19.4 °F 70% 30.05 in 10.0 mi NW 5.8 mph - N/A   Overcast
2:15 AM 28.2 °F 18.3 °F 17.8 °F 65% 30.08 in 10.0 mi NW 11.5 mph 16.1 mph N/A   Overcast
2:34 AM 28.0 °F 20.8 °F 16.7 °F 62% 30.08 in 10.0 mi NW 6.9 mph - N/A   Overcast
2:55 AM 28.0 °F 21.7 °F 17.8 °F 65% 30.08 in 10.0 mi NW 5.8 mph - N/A   Overcast
3:14 AM 28.0 °F 21.7 °F 17.4 °F 64% 30.10 in 10.0 mi WNW 5.8 mph - N/A   Overcast
3:35 AM 28.0 °F 22.8 °F 16.9 °F 63% 30.10 in 10.0 mi NW 4.6 mph - N/A   Overcast
3:55 AM 28.0 °F 21.7 °F 16.9 °F 63% 30.10 in 10.0 mi NW 5.8 mph - N/A   Overcast
4:15 AM 26.8 °F - 18.5 °F 71% 30.11 in 10.0 mi Calm Calm - N/A   Overcast
4:35 AM 25.7 °F - 19.9 °F 79% 30.12 in 10.0 mi Calm Calm - N/A   Overcast
4:54 AM 24.8 °F 20.5 °F 19.8 °F 81% 30.12 in 10.0 mi East 3.5 mph - N/A   Overcast
5:15 AM 24.6 °F - 19.4 °F 81% 30.12 in 10.0 mi Calm Calm - N/A   Overcast
5:35 AM 23.2 °F - 19.6 °F 86% 30.13 in 10.0 mi Calm Calm - N/A   Overcast
5:54 AM 21.7 °F - 19.2 °F 90% 30.14 in 10.0 mi Calm Calm - N/A   Overcast
6:15 AM 19.8 °F - 18.1 °F 93% 30.14 in 7.0 mi Calm Calm - N/A   Mostly Cloudy
6:35 AM 18.0 °F - 16.7 °F 95% 30.15 in 7.0 mi Calm Calm - N/A   Scattered Clouds
6:55 AM 17.4 °F - 16.2 °F 95% 30.16 in 5.0 mi Calm Calm - N/A   Clear
7:15 AM 14.5 °F - 13.1 °F 94% 30.19 in 2.5 mi Calm Calm - N/A   Clear
7:34 AM 14.7 °F - 13.1 °F 93% 30.19 in 3.0 mi Calm Calm - N/A   Scattered Clouds
7:55 AM 12.2 °F - 10.2 °F 92% 30.19 in 1.5 mi Calm Calm - N/A   Mostly Cloudy
8:15 AM 14.0 °F - 12.4 °F 93% 30.19 in 4.0 mi Calm Calm - N/A   Mostly Cloudy
8:34 AM 19.0 °F - 18.0 °F 96% 30.19 in 7.0 mi Calm Calm - N/A   Scattered Clouds
8:55 AM 21.4 °F 16.6 °F 20.1 °F 95% 30.19 in 10.0 mi SSE 3.5 mph - N/A   Mostly Cloudy
9:15 AM 24.3 °F 17.3 °F 18.9 °F 80% 30.20 in 10.0 mi SSE 5.8 mph - N/A   Overcast
9:35 AM 24.6 °F 18.8 °F 18.0 °F 76% 30.21 in 10.0 mi South 4.6 mph - N/A   Mostly Cloudy
10:15 AM 26.8 °F 20.2 °F 17.6 °F 68% 30.23 in 10.0 mi South 5.8 mph - N/A   Scattered Clouds
10:35 AM 28.9 °F 22.8 °F 17.4 °F 62% 30.23 in 10.0 mi SSE 5.8 mph - N/A   Mostly Cloudy
10:55 AM 30.0 °F 24.1 °F 17.1 °F 59% 30.22 in 10.0 mi SSE 5.8 mph - N/A   Mostly Cloudy
11:35 AM 30.9 °F 26.2 °F 16.7 °F 56% 30.24 in 10.0 mi SW 4.6 mph - N/A   Clear
11:55 AM 31.3 °F 26.6 °F 16.5 °F 54% 30.24 in 10.0 mi SSW 4.6 mph - N/A   Clear
12:14 PM 32.0 °F 27.5 °F 18.0 °F 56% 30.24 in 10.0 mi WSW 4.6 mph - N/A   Clear
12:34 PM 32.0 °F 24.8 °F 18.0 °F 56% 30.24 in 10.0 mi WSW 8.1 mph - N/A   Clear
12:54 PM 32.0 °F - 18.5 °F 58% 30.23 in 10.0 mi Calm Calm - N/A   Clear
1:15 PM 32.0 °F 24.8 °F 19.6 °F 60% 30.23 in 10.0 mi WSW 8.1 mph - N/A   Clear
1:35 PM 32.0 °F 25.6 °F 19.9 °F 61% 30.22 in 10.0 mi West 6.9 mph - N/A   Clear
1:55 PM 32.2 °F - 18.7 °F 58% 30.21 in 10.0 mi Calm Calm - N/A   Clear
2:15 PM 33.6 °F 29.4 °F 19.2 °F 56% 30.20 in 10.0 mi SE 4.6 mph - N/A   Clear
2:34 PM 33.3 °F 27.9 °F 19.9 °F 58% 30.21 in 10.0 mi West 5.8 mph - N/A   Clear
2:55 PM 32.9 °F 25.9 °F 16.5 °F 51% 30.21 in 10.0 mi SW 8.1 mph - N/A   Clear
3:14 PM 32.7 °F 27.3 °F 16.9 °F 52% 30.20 in 10.0 mi South 5.8 mph - N/A   Clear
3:34 PM 32.9 °F 25.9 °F 16.9 °F 52% 30.20 in 10.0 mi South 8.1 mph - N/A   Clear
3:55 PM 32.4 °F 25.3 °F 16.9 °F 53% 30.20 in 10.0 mi SE 8.1 mph - N/A   Clear
4:15 PM 32.9 °F 29.8 °F 19.6 °F 58% 30.21 in 10.0 mi WSW 3.5 mph - N/A   Clear
4:35 PM 32.7 °F - 19.8 °F 59% 30.20 in 10.0 mi Calm Calm - N/A   Clear
4:55 PM 32.5 °F 27.1 °F 16.7 °F 52% 30.19 in 10.0 mi South 5.8 mph - N/A   Clear
5:15 PM 32.4 °F 27.9 °F 16.9 °F 53% 30.19 in 10.0 mi SSE 4.6 mph - N/A   Clear
5:35 PM 32.0 °F 27.5 °F 17.1 °F 54% 30.21 in 10.0 mi SSW 4.6 mph - N/A   Scattered Clouds
5:55 PM 31.3 °F - 18.3 °F 59% 30.21 in 10.0 mi Calm Calm - N/A   Mostly Cloudy
6:15 PM 30.9 °F - 18.5 °F 60% 30.22 in 10.0 mi Calm Calm - N/A   Overcast
6:35 PM 31.3 °F 27.9 °F 18.7 °F 60% 30.21 in 10.0 mi SE 3.5 mph - N/A   Overcast
6:55 PM 31.3 °F 27.9 °F 19.6 °F 62% 30.20 in 10.0 mi SE 3.5 mph - N/A   Overcast
7:14 PM 31.1 °F 27.7 °F 20.7 °F 65% 30.22 in 10.0 mi South 3.5 mph - N/A   Overcast
7:35 PM 30.6 °F - 20.3 °F 66% 30.20 in 10.0 mi Calm Calm - N/A   Scattered Clouds
7:55 PM 30.2 °F 26.7 °F 20.3 °F 67% 30.20 in 10.0 mi SSE 3.5 mph - N/A   Clear
8:15 PM 30.2 °F 25.4 °F 20.3 °F 67% 30.19 in 10.0 mi SE 4.6 mph - N/A   Clear
8:35 PM 30.2 °F 23.4 °F 20.5 °F 67% 30.17 in 10.0 mi SSE 6.9 mph - N/A   Scattered Clouds
8:54 PM 30.4 °F 24.5 °F 20.7 °F 67% 30.17 in 10.0 mi SSE 5.8 mph - N/A   Scattered Clouds
9:15 PM 30.7 °F 24.9 °F 20.8 °F 67% 30.16 in 10.0 mi SE 5.8 mph - N/A   Overcast
9:35 PM 30.7 °F 24.9 °F 21.0 °F 67% 30.17 in 10.0 mi SE 5.8 mph - N/A   Overcast
9:55 PM 30.7 °F 24.9 °F 21.2 °F 68% 30.16 in 10.0 mi SE 5.8 mph - N/A   Overcast
10:15 PM 30.6 °F 25.8 °F 21.7 °F 70% 30.17 in 10.0 mi SE 4.6 mph - N/A   Overcast
10:35 PM 30.6 °F 25.8 °F 22.1 °F 71% 30.17 in 10.0 mi SE 4.6 mph - N/A   Overcast
10:54 PM 30.6 °F - 22.3 °F 71% 30.18 in 10.0 mi Calm Calm - N/A   Overcast
11:15 PM 30.2 °F - 22.5 °F 73% 30.18 in 7.0 mi Calm Calm - N/A   Overcast
11:35 PM 30.2 °F 25.4 °F 22.6 °F 73% 30.17 in 7.0 mi ESE 4.6 mph - N/A   Overcast
11:55 PM 30.0 °F 26.5 °F 22.6 °F 74% 30.16 in 7.0 mi ESE 3.5 mph - N/A   Overcast